FW6908 Weather Reports


time (UTC)temp
C
wind
direction
speed
KPH
gust
KPH
rain 1hr
cm
rain 24hr
cm
rain mn
cm
humidity
%
barometer
mb
20260503055018 7 355 8.0 20.9 0.05 0.23 0.23 82 1018.4
20260503054518 7 24 11.3 25.7 0.05 0.23 0.20 82 1018.5
20260503054019 7 71 9.7 32.2 0.05 0.23 0.20 81 1018.6
20260503053517 7 77 17.7 32.2 0.05 0.20 0.18 81 1018.7
20260503053019 7 83 20.9 33.8 0.05 0.20 0.18 81 1018.6
20260503052516 7 60 16.1 35.4 0.05 0.20 0.18 82 1018.3
20260503052015 7 90 20.9 37.0 0.05 0.20 0.18 82 1018.2
20260503051530 7 77 22.5 38.6 0.03 0.18 0.15 82 1018.2
20260503051013 7 71 22.5 38.6 0.03 0.18 0.15 81 1018.2
20260503050512 7 93 25.7 38.6 0.05 0.18 0.15 81 1018.1
20260503050011 7 92 25.7 35.4 0.05 0.18 0.15 81 1018.0
20260503045510 7 66 14.5 27.4 0.05 0.18 0.15 80 1018.1
20260503045009 7 111 9.7 25.7 0.05 0.18 0.15 80 1018.0
20260503044508 7 93 14.5 27.4 0.03 0.15 0.15 80 1018.1
20260503044008 7 103 19.3 27.4 0.03 0.15 0.15 79 1018.0
20260503043507 7 77 14.5 25.7 0.03 0.15 0.15 79 1018.0
20260503043007 7 34 12.9 25.7 0.03 0.15 0.15 79 1017.9
20260503042507 8 78 4.8 12.9 0.03 0.15 0.15 79 1018.1
20260503042005 8 52 1.6 16.1 0.03 0.15 0.15 79 1018.1
20260503041505 8 64 8.0 17.7 0.03 0.15 0.15 79 1018.0
20260503041008 8 192 8.0 17.7 0.03 0.15 0.15 80 1017.8
20260503040505 7 97 1.6 12.9 0.00 0.15 0.13 80 1017.8
20260503040005 7 78 8.0 12.9 0.00 0.15 0.13 80 1017.7
20260503035504 8 94 6.4 11.3 0.00 0.15 0.13 80 1017.7
20260503035005 8 90 1.6 8.0 0.00 0.15 0.13 80 1017.7
20260503034505 8 22 3.2 8.0 0.00 0.15 0.13 79 1017.6
20260503034004 8 69 1.6 8.0 0.03 0.15 0.13 79 1017.6
20260503033505 8 76 0.0 9.7 0.03 0.15 0.13 79 1017.5
20260503033005 8 103 3.2 9.7 0.03 0.15 0.13 78 1017.4
20260503032503 8 83 6.4 22.5 0.05 0.15 0.13 77 1017.3
20260503032003 8 14 8.0 22.5 0.05 0.15 0.13 76 1017.2
20260503031503 8 336 6.4 17.7 0.05 0.15 0.13 76 1017.2
20260503031003 8 327 12.9 20.9 0.05 0.15 0.13 76 1017.2
20260503030502 8 337 12.9 27.4 0.05 0.15 0.13 76 1017.2
20260503030003 8 355 17.7 27.4 0.05 0.15 0.13 77 1017.2
20260503025502 8 337 6.4 14.5 0.05 0.15 0.13 79 1017.3
20260503025002 8 61 6.4 14.5 0.05 0.15 0.13 79 1017.4
20260503024502 8 360 3.2 16.1 0.05 0.15 0.13 79 1017.2
20260503024002 8 326 9.7 16.1 0.05 0.15 0.10 78 1017.3
20260503023102 8 329 9.7 19.3 0.05 0.15 0.10 77 1017.5
20260503023002 8 323 11.3 19.3 0.05 0.15 0.10 77 1017.4
20260503022600 8 328 6.4 29.0 0.03 0.13 0.08 77 1017.5
20260503022100 8 10 12.9 30.6 0.03 0.13 0.08 76 1017.5
20260503021607 8 349 19.3 30.6 0.03 0.13 0.08 77 1017.4
20260503021059 8 342 16.1 24.1 0.03 0.13 0.08 78 1017.5
20260503020600 8 36 6.4 12.9 0.00 0.10 0.05 78 1017.5
20260503020100 8 28 6.4 20.9 0.00 0.10 0.05 77 1017.5
20260503015558 8 333 8.0 20.9 0.00 0.10 0.05 75 1017.5
20260503015058 8 35 9.7 30.6 0.00 0.10 0.05 73 1017.5
20260503014606 8 348 16.1 30.6 0.00 0.10 0.05 72 1017.4
20260503014059 8 22 12.9 19.3 0.00 0.10 0.05 73 1017.5
20260503013558 8 349 11.3 20.9 0.00 0.10 0.05 74 1017.4
20260503013058 8 11 14.5 25.7 0.00 0.10 0.05 74 1017.4
20260503012558 8 349 16.1 27.4 0.00 0.10 0.05 74 1017.3
20260503012057 8 348 17.7 27.4 0.00 0.10 0.05 75 1017.1
20260503011600 8 24 17.7 33.8 0.00 0.10 0.05 76 1017.1
20260503011057 8 350 19.3 41.8 0.00 0.10 0.05 76 1016.9
20260503010556 8 335 24.1 41.8 0.00 0.10 0.05 76 1017.0
20260503010107 8 349 25.7 37.0 0.00 0.10 0.05 74 1017.3
20260503005559 8 344 19.3 30.6 0.00 0.10 0.05 75 1017.4
20260503005056 8 10 11.3 20.9 0.00 0.10 0.05 76 1017.4
20260503004555 8 355 9.7 16.1 0.00 0.10 0.05 76 1017.3
20260503004155 8 318 11.3 16.1 0.00 0.10 0.05 76 1017.3
20260503003553 8 17 4.8 17.7 0.00 0.10 0.05 75 1017.3
20260503003059 8 355 8.0 19.3 0.00 0.10 0.05 75 1017.3
20260503002552 8 317 8.0 20.9 0.00 0.10 0.05 75 1017.4
20260503002051 8 319 12.9 24.1 0.00 0.10 0.05 75 1017.5
20260503001551 8 355 16.1 22.5 0.00 0.10 0.05 75 1017.5
20260503001054 8 329 9.7 24.1 0.00 0.10 0.05 75 1017.5
20260503000549 7 312 11.3 22.5 0.00 0.10 0.05 75 1017.5
20260503000054 7 333 12.9 19.3 0.00 0.10 0.05 77 1017.7
20260502235552 7 344 8.0 22.5 0.00 0.10 0.05 77 1017.6
20260502235049 7 329 12.9 27.4 0.00 0.10 0.05 78 1017.6
20260502234548 7 296 20.9 29.0 0.00 0.10 0.05 78 1017.8
20260502234046 7 323 22.5 29.0 0.00 0.10 0.05 78 1018.0
20260502233547 7 325 19.3 32.2 0.00 0.10 0.05 78 1018.0
20260502233043 8 324 20.9 32.2 0.03 0.10 0.05 77 1018.1
20260502232543 8 293 20.9 30.6 0.05 0.10 0.05 77 1018.2
20260502232041 8 319 17.7 24.1 0.05 0.10 0.05 76 1018.2
20260502231541 8 347 12.9 25.7 0.05 0.10 0.05 76 1018.2
20260502231042 8 341 17.7 25.7 0.05 0.10 0.05 76 1018.3
20260502230546 8 325 6.4 17.7 0.05 0.10 0.05 79 1018.3
20260502230041 8 31 1.6 6.4 0.05 0.10 0.05 79 1018.3
20260502225539 8 53 1.6 12.9 0.05 0.10 0.05 79 1018.3
20260502225039 8 355 3.2 22.5 0.05 0.10 0.05 79 1018.4
20260502224539 8 17 3.2 22.5 0.05 0.10 0.05 79 1018.5
20260502224037 8 10 11.3 32.2 0.05 0.10 0.05 78 1018.4
20260502223538 8 340 17.7 41.8 0.05 0.10 0.05 76 1018.2
20260502223035 9 355 25.7 41.8 0.05 0.08 0.05 74 1019.1
20260502222534 9 34 6.4 14.5 0.03 0.05 0.03 73 1018.8
20260502222033 9 355 4.8 19.3 0.03 0.05 0.03 71 1018.5
20260502221532 9 16 11.3 24.1 0.03 0.05 0.03 69 1018.7
20260502221030 10 31 11.3 24.1 0.03 0.05 0.03 66 1018.6
20260502220528 10 17 11.3 16.1 0.00 0.05 0.00 61 1018.9
20260502220030 10 10 4.8 9.7 0.00 0.05 0.00 60 1018.8
20260502215528 10 360 3.2 12.9 0.00 0.05 0.00 60 1018.8
20260502215028 10 350 0.0 25.7 0.00 0.05 0.00 61 1018.8
20260502214527 10 98 4.8 35.4 0.00 0.05 0.00 60 1018.8
20260502214031 10 338 11.3 20.9 0.00 0.05 0.00 60 1018.8
20260502213525 10 360 9.7 17.7 0.00 0.05 0.00 59 1018.8
20260502213037 10 343 12.9 17.7 0.00 0.05 0.00 59 1018.7
20260502212525 10 331 8.0 16.1 0.00 0.05 0.00 59 1018.7
20260502212024 10 343 11.3 19.3 0.00 0.05 0.00 59 1018.7
20260502211529 10 325 11.3 20.9 0.00 0.05 0.00 59 1018.7
20260502211023 10 355 12.9 20.9 0.00 0.05 0.00 59 1018.6
20260502210521 10 345 9.7 17.7 0.00 0.05 0.00 59 1018.6
20260502210020 10 350 9.7 16.1 0.00 0.05 0.05 58 1018.7
20260502205521 10 342 11.3 16.1 0.00 0.05 0.05 57 1018.7
20260502205020 10 11 9.7 16.1 0.00 0.05 0.05 57 1018.7
20260502204521 10 10 9.7 16.1 0.00 0.05 0.05 57 1018.8
20260502204019 10 355 3.2 8.0 0.00 0.05 0.05 56 1018.9
20260502203518 10 35 4.8 14.5 0.00 0.05 0.05 55 1018.9
20260502203020 10 329 8.0 14.5 0.00 0.05 0.05 54 1019.0
20260502202517 10 355 8.0 16.1 0.00 0.05 0.05 53 1019.0
20260502202017 11 351 9.7 16.1 0.00 0.05 0.05 51 1019.0
20260502201524 11 26 6.4 14.5 0.00 0.05 0.05 51 1019.0
20260502201017 11 17 6.4 11.3 0.00 0.05 0.05 51 1019.0
20260502200517 11 342 4.8 16.1 0.00 0.05 0.05 51 1019.0
20260502200018 11 49 8.0 17.7 0.00 0.05 0.05 50 1019.0
20260502195517 11 355 11.3 17.7 0.00 0.05 0.05 50 1019.1
20260502195015 11 43 8.0 20.9 0.00 0.05 0.05 50 1019.1
20260502194516 11 28 8.0 22.5 0.00 0.05 0.05 50 1019.1
20260502194017 11 10 11.3 22.5 0.00 0.05 0.05 50 1019.1
20260502193515 11 28 14.5 24.1 0.00 0.05 0.05 50 1019.1
20260502193016 11 17 16.1 24.1 0.00 0.05 0.05 49 1019.1
20260502192515 11 26 11.3 24.1 0.00 0.05 0.05 49 1019.0
20260502192014 11 33 14.5 30.6 0.00 0.05 0.05 49 1019.1
20260502191514 11 26 19.3 30.6 0.00 0.05 0.05 49 1019.0
20260502191014 11 43 9.7 17.7 0.00 0.05 0.05 50 1019.1
20260502190514 10 30 8.0 19.3 0.00 0.05 0.05 51 1019.1
20260502190020 10 26 12.9 19.3 0.00 0.05 0.05 50 1019.1
20260502185514 11 32 4.8 17.7 0.00 0.05 0.05 50 1019.1
20260502185014 11 42 9.7 17.7 0.00 0.05 0.05 50 1019.1
20260502184523 11 36 9.7 22.5 0.00 0.05 0.05 50 1019.1
20260502184013 11 40 9.7 22.5 0.00 0.05 0.05 50 1019.1
20260502183512 11 44 9.7 16.1 0.00 0.05 0.05 49 1018.9
20260502183012 11 36 4.8 17.7 0.00 0.05 0.05 50 1018.9
20260502182511 11 55 4.8 17.7 0.00 0.05 0.05 49 1018.9
20260502182012 11 13 8.0 16.1 0.00 0.05 0.05 50 1018.8
20260502181512 10 58 9.7 16.1 0.00 0.05 0.05 50 1018.9
20260502181011 10 35 8.0 16.1 0.00 0.05 0.05 51 1018.9
20260502180511 11 72 6.4 20.9 0.00 0.05 0.05 50 1018.9
20260502170509 11 10 8.0 14.5 0.00 0.05 0.05 48 1018.8
20260502164007 11 13 22.5 29.0 0.00 0.05 0.05 47 1018.7
20260502163507 12 10 11.3 24.1 0.00 0.05 0.05 47 1018.6
20260502163010 12 348 11.3 25.7 0.00 0.05 0.05 47 1018.7
20260502162507 12 86 12.9 25.7 0.00 0.05 0.05 46 1018.6
20260502162006 12 33 17.7 25.7 0.00 0.05 0.05 46 1018.6
20260502161506 12 22 12.9 32.2 0.00 0.05 0.05 46 1018.6
20260502161005 12 39 17.7 30.6 0.00 0.05 0.05 45 1018.6
20260502160504 12 23 12.9 33.8 0.00 0.05 0.05 46 1018.7
20260502152054 12 37 19.3 37.0 0.00 0.05 0.05 47 1019.0
20260502151603 12 25 22.5 37.0 0.00 0.05 0.05 47 1019.2
20260502151055 12 38 22.5 38.6 0.00 0.05 0.05 45 1019.1
20260502150553 12 41 24.1 40.2 0.00 0.05 0.05 44 1019.1
20260502130548 12 63 20.9 38.6 0.00 0.05 0.05 43 1019.2
20260502123645 12 14 25.7 40.2 0.00 0.05 0.05 46 1019.5
20260502123044 12 18 17.7 38.6 0.00 0.05 0.05 46 1019.5
20260502122644 12 59 22.5 41.8 0.00 0.05 0.05 46 1019.4
20260502122042 12 27 24.1 41.8 0.00 0.05 0.05 46 1019.3
20260502121543 12 19 22.5 41.8 0.00 0.05 0.05 46 1019.3
20260502121045 12 54 19.3 41.8 0.00 0.05 0.05 46 1019.4
20260502120544 12 62 22.5 43.5 0.00 0.05 0.05 45 1019.4
20260502115541 13 15 30.6 41.8 0.00 0.05 0.05 46 1019.3
20260502115045 13 40 24.1 43.5 0.00 0.05 0.05 46 1019.3
20260502114544 12 42 20.9 49.9 0.00 0.05 0.05 47 1019.6
20260502114039 12 45 25.7 49.9 0.00 0.05 0.05 48 1019.8
20260502113538 12 14 25.7 41.8 0.00 0.05 0.05 49 1019.6
20260502113038 12 27 24.1 41.8 0.00 0.05 0.05 49 1019.6
20260502112539 12 20 22.5 37.0 0.00 0.05 0.05 49 1019.5
20260502112037 13 46 20.9 38.6 0.00 0.05 0.05 49 1019.5
20260502111536 12 10 16.1 38.6 0.00 0.05 0.05 52 1019.5
20260502111036 12 55 16.1 33.8 0.00 0.05 0.05 52 1019.6
20260502110536 12 355 20.9 35.4 0.00 0.05 0.05 54 1019.8
20260502110039 11 84 24.1 41.8 0.00 0.05 0.05 56 1019.9
20260502105535 11 21 20.9 41.8 0.00 0.05 0.05 56 1020.0
20260502105036 11 85 20.9 40.2 0.00 0.05 0.05 56 1019.9
20260502104537 12 49 17.7 45.1 0.00 0.05 0.05 55 1020.0
20260502104035 12 43 20.9 45.1 0.00 0.05 0.05 55 1020.0
20260502103538 12 73 22.5 38.6 0.00 0.05 0.05 55 1020.0
20260502103034 12 62 19.3 33.8 0.00 0.05 0.05 56 1020.0
20260502102534 12 28 19.3 37.0 0.00 0.05 0.05 56 1020.1
20260502102034 12 58 22.5 38.6 0.00 0.05 0.05 56 1020.2
20260502101538 12 80 22.5 41.8 0.00 0.05 0.05 56 1020.0
20260502101033 12 33 27.4 41.8 0.00 0.05 0.05 57 1020.1
20260502100533 12 58 17.7 30.6 0.00 0.05 0.05 61 1020.1
20260502091528 11 347 14.5 25.7 0.00 0.05 0.05 61 1020.0
20260502091028 11 23 14.5 25.7 0.00 0.05 0.05 63 1020.0
20260502090526 11 19 16.1 27.4 0.00 0.05 0.05 63 1020.1
20260502071520 11 74 29.0 48.3 0.00 0.05 0.05 60 1019.8
20260502071019 11 61 24.1 51.5 0.00 0.05 0.05 60 1019.9
20260502070518 11 59 27.4 51.5 0.00 0.05 0.05 60 1019.9
20260502070018 11 34 24.1 40.2 0.00 0.05 0.05 59 1019.7
20260502065518 11 85 16.1 40.2 0.00 0.05 0.05 59 1019.7
20260502065017 11 31 20.9 38.6 0.00 0.05 0.05 60 1019.6
20260502064536 11 23 14.5 43.5 0.00 0.05 0.05 61 1019.7
20260502064018 11 70 20.9 43.5 0.00 0.05 0.05 61 1019.7